Time,TemperatureF,DewpointF,PressureIn,WindDirection,WindDirectionDegrees,WindSpeedMPH,WindSpeedGustMPH,Humidity,HourlyPrecipIn,Conditions,Clouds,dailyrainin,SoftwareType,DateUTC
2013-04-23 00:00:00,53.4,-99.9,-100.00,SE,135,4.0,9.0,-999,0.00,,,-99.99,WeatherLink 5.4,2013-04-23 04:00:00,
2013-04-23 00:03:00,52.6,-99.9,-100.00,SE,135,3.0,12.0,-999,0.00,,,-99.99,WeatherLink 5.4,2013-04-23 04:03:00,
2013-04-23 00:30:00,52.6,-99.9,-100.00,SE,135,3.0,12.0,-999,0.00,,,-99.99,WeatherLink 5.4,2013-04-23 04:30:00,
2013-04-23 00:33:00,50.7,-99.9,-100.00,SE,135,2.0,7.0,-999,0.00,,,-99.99,WeatherLink 5.4,2013-04-23 04:33:00,
2013-04-23 01:00:00,51.6,-99.9,-100.00,SE,135,2.0,8.0,-999,0.00,,,-99.99,WeatherLink 5.4,2013-04-23 05:00:00,
2013-04-23 01:03:00,50.7,-99.9,-100.00,SE,135,2.0,7.0,-999,0.00,,,-99.99,WeatherLink 5.4,2013-04-23 05:03:00,
2013-04-23 01:30:00,50.7,-99.9,-100.00,SE,135,2.0,7.0,-999,0.00,,,-99.99,WeatherLink 5.4,2013-04-23 05:30:00,
2013-04-23 01:33:00,49.9,-99.9,-100.00,SE,135,2.0,8.0,-999,0.00,,,-99.99,WeatherLink 5.4,2013-04-23 05:33:00,
2013-04-23 02:00:00,49.9,-99.9,-100.00,SE,135,2.0,8.0,-999,0.00,,,-99.99,WeatherLink 5.4,2013-04-23 06:00:00,
2013-04-23 02:03:00,49.1,-99.9,-100.00,SE,135,3.0,8.0,-999,0.00,,,-99.99,WeatherLink 5.4,2013-04-23 06:03:00,
2013-04-23 02:30:00,49.1,-99.9,-100.00,SE,135,3.0,8.0,-999,0.00,,,-99.99,WeatherLink 5.4,2013-04-23 06:30:00,
2013-04-23 02:33:00,48.5,-99.9,-100.00,SE,135,3.0,10.0,-999,0.00,,,-99.99,WeatherLink 5.4,2013-04-23 06:33:00,
2013-04-23 03:00:00,48.5,-99.9,-100.00,SE,135,3.0,10.0,-999,0.00,,,-99.99,WeatherLink 5.4,2013-04-23 07:00:00,
2013-04-23 03:03:00,47.7,-99.9,-100.00,SE,135,3.0,8.0,-999,0.00,,,-99.99,WeatherLink 5.4,2013-04-23 07:03:00,
2013-04-23 03:30:00,47.7,-99.9,-100.00,SE,135,3.0,8.0,-999,0.00,,,-99.99,WeatherLink 5.4,2013-04-23 07:30:00,
2013-04-23 03:33:00,46.9,-99.9,-100.00,SE,135,1.0,6.0,-999,0.00,,,-99.99,WeatherLink 5.4,2013-04-23 07:33:00,
2013-04-23 04:00:00,46.9,-99.9,-100.00,SE,135,1.0,6.0,-999,0.00,,,-99.99,WeatherLink 5.4,2013-04-23 08:00:00,
2013-04-23 04:03:00,46.2,-99.9,-100.00,SE,135,2.0,8.0,-999,0.00,,,-99.99,WeatherLink 5.4,2013-04-23 08:03:00,
2013-04-23 04:30:00,46.2,-99.9,-100.00,SE,135,2.0,8.0,-999,0.00,,,-99.99,WeatherLink 5.4,2013-04-23 08:30:00,
2013-04-23 04:33:00,45.4,-99.9,-100.00,SE,135,3.0,7.0,-999,0.00,,,-99.99,WeatherLink 5.4,2013-04-23 08:33:00,
2013-04-23 05:00:00,45.4,-99.9,-100.00,SE,135,3.0,7.0,-999,0.00,,,-99.99,WeatherLink 5.4,2013-04-23 09:00:00,
2013-04-23 05:03:00,44.8,-99.9,-100.00,SE,135,4.0,9.0,-999,0.00,,,-99.99,WeatherLink 5.4,2013-04-23 09:03:00,
2013-04-23 05:30:00,44.8,-99.9,-100.00,SE,135,4.0,9.0,-999,0.00,,,-99.99,WeatherLink 5.4,2013-04-23 09:30:00,
2013-04-23 05:33:00,44.1,-99.9,-100.00,SE,135,3.0,7.0,-999,0.00,,,-99.99,WeatherLink 5.4,2013-04-23 09:33:00,
2013-04-23 06:00:00,44.1,-99.9,-100.00,SE,135,3.0,7.0,-999,0.00,,,-99.99,WeatherLink 5.4,2013-04-23 10:00:00,
2013-04-23 06:03:00,43.7,-99.9,-100.00,SE,135,3.0,8.0,-999,0.00,,,-99.99,WeatherLink 5.4,2013-04-23 10:03:00,
2013-04-23 06:30:00,43.7,-99.9,-100.00,SE,135,3.0,8.0,-999,0.00,,,-99.99,WeatherLink 5.4,2013-04-23 10:30:00,
2013-04-23 06:33:00,43.0,-99.9,-100.00,SE,135,3.0,7.0,-999,0.00,,,-99.99,WeatherLink 5.4,2013-04-23 10:33:00,
2013-04-23 07:00:00,43.0,-99.9,-100.00,SE,135,3.0,7.0,-999,0.00,,,-99.99,WeatherLink 5.4,2013-04-23 11:00:00,
2013-04-23 07:03:00,42.5,-99.9,-100.00,SE,135,4.0,8.0,-999,0.00,,,-99.99,WeatherLink 5.4,2013-04-23 11:03:00,
2013-04-23 07:30:00,42.5,-99.9,-100.00,SE,135,4.0,8.0,-999,0.00,,,-99.99,WeatherLink 5.4,2013-04-23 11:30:00,
2013-04-23 07:33:00,42.5,-99.9,-100.00,SE,135,4.0,9.0,-999,0.00,,,-99.99,WeatherLink 5.4,2013-04-23 11:33:00,
2013-04-23 08:00:00,42.5,-99.9,-100.00,SE,135,4.0,9.0,-999,0.00,,,-99.99,WeatherLink 5.4,2013-04-23 12:00:00,
2013-04-23 08:03:00,43.3,-99.9,-100.00,SE,135,4.0,10.0,-999,0.00,,,-99.99,WeatherLink 5.4,2013-04-23 12:03:00,
2013-04-23 08:30:00,43.3,-99.9,-100.00,SE,135,4.0,10.0,-999,0.00,,,-99.99,WeatherLink 5.4,2013-04-23 12:30:00,
2013-04-23 08:33:00,45.3,-99.9,-100.00,SE,135,3.0,11.0,-999,0.00,,,-99.99,WeatherLink 5.4,2013-04-23 12:33:00,
2013-04-23 09:00:00,45.3,-99.9,-100.00,SE,135,3.0,11.0,-999,0.00,,,-99.99,WeatherLink 5.4,2013-04-23 13:00:00,
2013-04-23 09:03:00,47.5,-99.9,-100.00,SE,135,3.0,10.0,-999,0.00,,,-99.99,WeatherLink 5.4,2013-04-23 13:03:00,
2013-04-23 09:30:00,47.5,-99.9,-100.00,SE,135,3.0,10.0,-999,0.00,,,-99.99,WeatherLink 5.4,2013-04-23 13:30:00,
2013-04-23 09:33:00,50.5,-99.9,-100.00,SSE,157,2.0,10.0,-999,0.00,,,-99.99,WeatherLink 5.4,2013-04-23 13:33:00,
2013-04-23 10:00:00,50.5,-99.9,-100.00,SSE,157,2.0,10.0,-999,0.00,,,-99.99,WeatherLink 5.4,2013-04-23 14:00:00,
2013-04-23 10:03:00,52.3,-99.9,-100.00,SSW,202,2.0,12.0,-999,0.00,,,-99.99,WeatherLink 5.4,2013-04-23 14:03:00,
2013-04-23 10:30:00,52.3,-99.9,-100.00,SSW,202,2.0,12.0,-999,0.00,,,-99.99,WeatherLink 5.4,2013-04-23 14:30:00,
2013-04-23 10:33:00,55.9,-99.9,-100.00,SW,225,3.0,15.0,-999,0.00,,,-99.99,WeatherLink 5.4,2013-04-23 14:33:00,
2013-04-23 11:00:00,55.9,-99.9,-100.00,SW,225,3.0,15.0,-999,0.00,,,-99.99,WeatherLink 5.4,2013-04-23 15:00:00,
2013-04-23 11:03:00,58.5,-99.9,-100.00,SSW,202,3.0,14.0,-999,0.00,,,-99.99,WeatherLink 5.4,2013-04-23 15:03:00,
2013-04-23 11:30:00,58.5,-99.9,-100.00,SSW,202,3.0,14.0,-999,0.00,,,-99.99,WeatherLink 5.4,2013-04-23 15:30:00,
2013-04-23 11:33:00,59.5,-99.9,-100.00,SSW,202,3.0,10.0,-999,0.00,,,-99.99,WeatherLink 5.4,2013-04-23 15:33:00,
2013-04-23 12:00:00,59.5,-99.9,-100.00,SSW,202,3.0,10.0,-999,0.00,,,-99.99,WeatherLink 5.4,2013-04-23 16:00:00,
2013-04-23 12:03:00,62.6,-99.9,-100.00,SW,225,2.0,11.0,-999,0.00,,,-99.99,WeatherLink 5.4,2013-04-23 16:03:00,
2013-04-23 12:30:00,62.6,-99.9,-100.00,SW,225,2.0,11.0,-999,0.00,,,-99.99,WeatherLink 5.4,2013-04-23 16:30:00,
2013-04-23 12:33:00,66.4,-99.9,-100.00,SSW,202,2.0,11.0,-999,0.00,,,-99.99,WeatherLink 5.4,2013-04-23 16:33:00,
2013-04-23 13:00:00,66.4,-99.9,-100.00,SSW,202,2.0,11.0,-999,0.00,,,-99.99,WeatherLink 5.4,2013-04-23 17:00:00,
2013-04-23 13:03:00,69.3,-99.9,-100.00,SSW,202,3.0,11.0,-999,0.00,,,-99.99,WeatherLink 5.4,2013-04-23 17:03:00,
2013-04-23 13:30:00,69.3,-99.9,-100.00,SSW,202,3.0,11.0,-999,0.00,,,-99.99,WeatherLink 5.4,2013-04-23 17:30:00,
2013-04-23 13:33:00,74.6,-99.9,-100.00,SSW,202,3.0,14.0,-999,0.00,,,-99.99,WeatherLink 5.4,2013-04-23 17:33:00,
2013-04-23 14:00:00,74.6,-99.9,-100.00,SSW,202,3.0,14.0,-999,0.00,,,-99.99,WeatherLink 5.4,2013-04-23 18:00:00,
2013-04-23 14:03:00,74.2,-99.9,-100.00,SSW,202,4.0,12.0,-999,0.00,,,-99.99,WeatherLink 5.4,2013-04-23 18:03:00,
2013-04-23 14:30:00,74.2,-99.9,-100.00,SSW,202,4.0,12.0,-999,0.00,,,-99.99,WeatherLink 5.4,2013-04-23 18:30:00,
2013-04-23 14:33:00,69.3,-99.9,-100.00,SW,225,6.0,15.0,-999,0.00,,,-99.99,WeatherLink 5.4,2013-04-23 18:33:00,
2013-04-23 15:00:00,69.3,-99.9,-100.00,SW,225,6.0,15.0,-999,0.00,,,-99.99,WeatherLink 5.4,2013-04-23 19:00:00,
2013-04-23 15:03:00,69.9,-99.9,-100.00,SW,225,5.0,17.0,-999,0.00,,,-99.99,WeatherLink 5.4,2013-04-23 19:03:00,
2013-04-23 15:30:00,69.9,-99.9,-100.00,SW,225,5.0,17.0,-999,0.00,,,-99.99,WeatherLink 5.4,2013-04-23 19:30:00,
2013-04-23 15:33:00,70.2,-99.9,-100.00,SW,225,6.0,15.0,-999,0.00,,,-99.99,WeatherLink 5.4,2013-04-23 19:33:00,
2013-04-23 16:00:00,70.2,-99.9,-100.00,SW,225,6.0,15.0,-999,0.00,,,-99.99,WeatherLink 5.4,2013-04-23 20:00:00,
2013-04-23 16:03:00,70.8,-99.9,-100.00,WSW,247,5.0,16.0,-999,0.00,,,-99.99,WeatherLink 5.4,2013-04-23 20:03:00,
2013-04-23 16:30:00,70.8,-99.9,-100.00,WSW,247,5.0,16.0,-999,0.00,,,-99.99,WeatherLink 5.4,2013-04-23 20:30:00,
2013-04-23 16:33:00,70.5,-99.9,-100.00,SW,225,7.0,18.0,-999,0.00,,,-99.99,WeatherLink 5.4,2013-04-23 20:33:00,
2013-04-23 17:00:00,70.5,-99.9,-100.00,SW,225,7.0,18.0,-999,0.00,,,-99.99,WeatherLink 5.4,2013-04-23 21:00:00,
2013-04-23 17:03:00,70.6,-99.9,-100.00,SSW,202,6.0,18.0,-999,0.00,,,-99.99,WeatherLink 5.4,2013-04-23 21:03:00,
2013-04-23 17:30:00,70.6,-99.9,-100.00,SSW,202,6.0,18.0,-999,0.00,,,-99.99,WeatherLink 5.4,2013-04-23 21:30:00,
2013-04-23 17:33:00,70.0,-99.9,-100.00,SW,225,6.0,16.0,-999,0.00,,,-99.99,WeatherLink 5.4,2013-04-23 21:33:00,
2013-04-23 18:00:00,70.0,-99.9,-100.00,SW,225,6.0,16.0,-999,0.00,,,-99.99,WeatherLink 5.4,2013-04-23 22:00:00,
2013-04-23 18:04:00,69.3,-99.9,-100.00,SW,225,6.0,15.0,-999,0.00,,,-99.99,WeatherLink 5.4,2013-04-23 22:04:00,
2013-04-23 18:30:00,69.3,-99.9,-100.00,SW,225,6.0,15.0,-999,0.00,,,-99.99,WeatherLink 5.4,2013-04-23 22:30:00,
2013-04-23 18:33:00,68.9,-99.9,-100.00,WSW,247,6.0,16.0,-999,0.00,,,-99.99,WeatherLink 5.4,2013-04-23 22:33:00,
2013-04-23 19:00:00,68.9,-99.9,-100.00,WSW,247,6.0,16.0,-999,0.00,,,-99.99,WeatherLink 5.4,2013-04-23 23:00:00,
2013-04-23 19:03:00,68.3,-99.9,-100.00,SW,225,5.0,14.0,-999,0.00,,,-99.99,WeatherLink 5.4,2013-04-23 23:03:00,
2013-04-23 19:30:00,68.3,-99.9,-100.00,SW,225,5.0,14.0,-999,0.00,,,-99.99,WeatherLink 5.4,2013-04-23 23:30:00,
2013-04-23 19:33:00,67.8,-99.9,-100.00,SW,225,5.0,13.0,-999,0.00,,,-99.99,WeatherLink 5.4,2013-04-23 23:33:00,
2013-04-23 20:00:00,67.8,-99.9,-100.00,SW,225,5.0,13.0,-999,0.00,,,-99.99,WeatherLink 5.4,2013-04-24 00:00:00,
2013-04-23 20:03:00,67.0,-99.9,-100.00,SW,225,4.0,11.0,-999,0.00,,,-99.99,WeatherLink 5.4,2013-04-24 00:03:00,
2013-04-23 20:30:00,67.0,-99.9,-100.00,SW,225,4.0,11.0,-999,0.00,,,-99.99,WeatherLink 5.4,2013-04-24 00:30:00,
2013-04-23 20:33:00,66.2,-99.9,-100.00,SW,225,2.0,11.0,-999,0.00,,,-99.99,WeatherLink 5.4,2013-04-24 00:33:00,
2013-04-23 21:00:00,66.2,-99.9,-100.00,SW,225,2.0,11.0,-999,0.00,,,-99.99,WeatherLink 5.4,2013-04-24 01:00:00,
2013-04-23 21:03:00,65.0,-99.9,-100.00,SSW,202,1.0,7.0,-999,0.00,,,-99.99,WeatherLink 5.4,2013-04-24 01:03:00,
2013-04-23 21:30:00,65.0,-99.9,-100.00,SSW,202,1.0,7.0,-999,0.00,,,-99.99,WeatherLink 5.4,2013-04-24 01:30:00,
2013-04-23 21:33:00,63.9,-99.9,-100.00,SW,225,0.0,6.0,-999,0.00,,,-99.99,WeatherLink 5.4,2013-04-24 01:33:00,
2013-04-23 22:00:00,63.9,-99.9,-100.00,SW,225,0.0,6.0,-999,0.00,,,-99.99,WeatherLink 5.4,2013-04-24 02:00:00,
2013-04-23 22:03:00,63.7,-99.9,-100.00,SW,225,0.0,5.0,-999,0.00,,,-99.99,WeatherLink 5.4,2013-04-24 02:03:00,
2013-04-23 22:30:00,63.7,-99.9,-100.00,SW,225,0.0,5.0,-999,0.00,,,-99.99,WeatherLink 5.4,2013-04-24 02:30:00,
2013-04-23 22:33:00,63.6,-99.9,-100.00,SW,225,1.0,9.0,-999,0.00,,,-99.99,WeatherLink 5.4,2013-04-24 02:33:00,
2013-04-23 23:00:00,63.6,-99.9,-100.00,SW,225,1.0,9.0,-999,0.00,,,-99.99,WeatherLink 5.4,2013-04-24 03:00:00,
2013-04-23 23:03:00,63.6,-99.9,-100.00,SW,225,1.0,9.0,-999,0.00,,,-99.99,WeatherLink 5.4,2013-04-24 03:03:00,
2013-04-23 23:30:00,63.2,-99.9,-100.00,SSW,202,1.0,8.0,-999,0.00,,,-99.99,WeatherLink 5.4,2013-04-24 03:30:00,
2013-04-23 23:33:00,62.7,-99.9,-100.00,SSW,202,1.0,9.0,-999,0.00,,,-99.99,WeatherLink 5.4,2013-04-24 03:33:00,